Location: Hylvaty SDH
(49.9612°N, 16.4057°E)
Time: 19:52:48
(UTC+01:00)

Vanguard 1 Rocket - Pass Details

Date: 07 October 2020
Orbit: 656 x 4221 km, 34.3° (Epoch: 30 October)

Event Time Altitude Azimuth Distance (km) Brightness Sun altitude
Rises 14:54:28 0° 188° (S) 3,770 11.5 27.3°
Reaches altitude 10° 14:58:24 10° 163° (SSE) 3,293 10.8 26.9°
Maximum altitude 15:02:21 14° 134° (SE) 3,484 10.5 26.5°
Drops below altitude 10° 15:07:24 10° 107° (ESE) 4,449 10.8 26.0°
Sets 15:14:43 0° 88° (E) 6,339 11.3 25.2°
